GOES 1 (SMS-C) 1 08366U 75100A 21061.66351986 .00000033 00000-0 00000-0 0 9996 2 08366 9.3838 301.7272 0002729 1.6308 329.5905 1.00252093165687 GOES 1 AKM 1 20962U 75100F 21061.06708934 -.00000328 00000-0 00000-0 0 9993 2 20962 7.1261 290.5898 0295816 20.9588 340.1525 1.01933833116449